ERT961 OEJN-HHAS

Flight info

Callsign ERT961
Flight time 1h 11m
Altitude 37000
Route RIBAM G650 RASKA/N0466F360 UG650 ASM
Aircraft B762/H-SDFGIRWY/S

Departure

Time 2026-05-08 13:40
Airport King Abdulaziz International Airport (OEJN)

Arrival

Time 2026-05-08 14:51
Airport Asmara International Airport (HHAS)
Time Latitude Longitude Altitude Speed Heading
2026-05-08 13:08 21.67568 39.15147 59 ft 0 kts 291°
2026-05-08 13:25 21.67565 39.15155 59 ft 2 kts 290°
2026-05-08 13:26 21.67560 39.15170 59 ft 2 kts 290°
2026-05-08 13:26 21.67555 39.15185 59 ft 2 kts 290°
2026-05-08 13:26 21.67551 39.15197 59 ft 0 kts 290°
2026-05-08 13:26 21.67548 39.15210 59 ft 2 kts 264°
2026-05-08 13:27 21.67552 39.15225 59 ft 2 kts 234°
2026-05-08 13:27 21.67563 39.15236 59 ft 2 kts 205°
2026-05-08 13:27 21.67577 39.15240 59 ft 2 kts 176°
2026-05-08 13:27 21.67586 39.15238 59 ft 0 kts 158°
2026-05-08 13:28 21.67589 39.15237 59 ft 0 kts 159°
2026-05-08 13:32 21.67578 39.15241 59 ft 5 kts 159°
2026-05-08 13:32 21.67537 39.15272 59 ft 8 kts 113°
2026-05-08 13:32 21.67549 39.15346 59 ft 10 kts 67°
2026-05-08 13:33 21.67582 39.15439 59 ft 15 kts 69°
2026-05-08 13:33 21.67623 39.15556 59 ft 16 kts 70°
2026-05-08 13:33 21.67641 39.15652 59 ft 10 kts 109°
2026-05-08 13:33 21.67594 39.15693 59 ft 7 kts 160°
2026-05-08 13:34 21.67544 39.15712 59 ft 9 kts 160°
2026-05-08 13:34 21.67452 39.15749 59 ft 18 kts 159°
2026-05-08 13:34 21.67307 39.15806 59 ft 25 kts 161°
2026-05-08 13:34 21.67148 39.15868 59 ft 22 kts 160°
2026-05-08 13:35 21.67006 39.15924 59 ft 21 kts 160°
2026-05-08 13:35 21.66869 39.15978 59 ft 20 kts 159°
2026-05-08 13:35 21.66743 39.16027 59 ft 18 kts 160°
2026-05-08 13:35 21.66623 39.16074 59 ft 17 kts 159°
2026-05-08 13:36 21.66511 39.16119 59 ft 16 kts 160°
2026-05-08 13:36 21.66407 39.16160 59 ft 15 kts 159°
2026-05-08 13:36 21.66311 39.16199 59 ft 14 kts 160°
2026-05-08 13:36 21.66221 39.16234 59 ft 13 kts 160°
2026-05-08 13:37 21.66138 39.16266 59 ft 12 kts 160°
2026-05-08 13:37 21.66081 39.16315 59 ft 9 kts 102°
2026-05-08 13:37 21.66092 39.16375 59 ft 7 kts 68°
2026-05-08 13:37 21.66110 39.16423 59 ft 6 kts 68°
2026-05-08 13:38 21.66129 39.16462 59 ft 5 kts 49°
2026-05-08 13:38 21.66156 39.16478 59 ft 4 kts 17°
2026-05-08 13:38 21.66169 39.16475 59 ft 1 kts 324°
2026-05-08 13:38 21.66192 39.16463 59 ft 0 kts 342°
2026-05-08 13:39 21.66292 39.16423 59 ft 44 kts 339°
2026-05-08 13:40 21.66799 39.16221 59 ft 108 kts 339°
2026-05-08 13:40 21.67681 39.15875 159 ft 154 kts 338°
2026-05-08 13:40 21.68703 39.15493 897 ft 155 kts 341°
2026-05-08 13:40 21.69693 39.15150 1525 ft 156 kts 341°
2026-05-08 13:41 21.70770 39.14729 1926 ft 169 kts 339°
2026-05-08 13:41 21.71908 39.14272 2371 ft 182 kts 339°
2026-05-08 13:41 21.73157 39.13790 2759 ft 202 kts 340°
2026-05-08 13:41 21.74501 39.13280 3360 ft 211 kts 340°
2026-05-08 13:42 21.75965 39.12693 3796 ft 232 kts 339°
2026-05-08 13:42 21.77535 39.12049 4264 ft 251 kts 339°
2026-05-08 13:42 21.79210 39.11372 4766 ft 267 kts 340°
2026-05-08 13:42 21.81007 39.10652 5438 ft 277 kts 340°
2026-05-08 13:43 21.82849 39.09920 5987 ft 292 kts 340°
2026-05-08 13:43 21.84804 39.09140 6020 ft 300 kts 339°
2026-05-08 13:43 21.86738 39.08367 5993 ft 291 kts 339°
2026-05-08 13:43 21.88502 39.07391 5994 ft 284 kts 319°
2026-05-08 13:44 21.89696 39.05683 6125 ft 294 kts 289°
2026-05-08 13:44 21.89935 39.03565 7178 ft 285 kts 261°
2026-05-08 13:44 21.89264 39.01616 8086 ft 283 kts 234°
2026-05-08 13:44 21.87823 39.00201 8914 ft 287 kts 208°
2026-05-08 13:45 21.85916 38.99649 9740 ft 291 kts 182°
2026-05-08 13:45 21.83918 39.00066 10454 ft 302 kts 160°
2026-05-08 13:45 21.82015 39.01178 10992 ft 320 kts 151°
2026-05-08 13:45 21.80047 39.02453 11493 ft 338 kts 151°
2026-05-08 13:46 21.77952 39.03804 11783 ft 359 kts 151°
2026-05-08 13:46 21.75678 39.05137 11791 ft 381 kts 159°
2026-05-08 13:46 21.73141 39.05948 11936 ft 386 kts 173°
2026-05-08 13:46 21.70464 39.06013 12813 ft 382 kts 185°
2026-05-08 13:47 21.67804 39.05938 13638 ft 385 kts 181°
2026-05-08 13:47 21.65066 39.05982 14294 ft 392 kts 181°
2026-05-08 13:47 21.62344 39.06054 14967 ft 398 kts 180°
2026-05-08 13:47 21.59531 39.06144 15626 ft 404 kts 180°
2026-05-08 13:48 21.56709 39.06248 16256 ft 410 kts 180°
2026-05-08 13:48 21.53839 39.06358 16856 ft 416 kts 180°
2026-05-08 13:48 21.50906 39.06475 17456 ft 422 kts 180°
2026-05-08 13:48 21.47970 39.06594 18096 ft 427 kts 180°
2026-05-08 13:49 21.44961 39.06717 18679 ft 433 kts 180°
2026-05-08 13:49 21.41952 39.06839 19271 ft 438 kts 180°
2026-05-08 13:49 21.38870 39.06966 19859 ft 443 kts 181°
2026-05-08 13:49 21.35809 39.07091 20425 ft 447 kts 180°
2026-05-08 13:50 21.32674 39.07220 21000 ft 452 kts 181°
2026-05-08 13:50 21.29493 39.07352 21531 ft 458 kts 181°
2026-05-08 13:50 21.27220 39.07445 21928 ft 460 kts 181°
2026-05-08 13:50 21.23982 39.07579 22449 ft 465 kts 181°
2026-05-08 13:51 21.20752 39.07711 23005 ft 468 kts 181°
2026-05-08 13:51 21.18044 39.07823 23630 ft 467 kts 181°
2026-05-08 13:51 21.14772 39.07957 24123 ft 472 kts 181°
2026-05-08 13:51 21.11468 39.08094 24731 ft 474 kts 181°
2026-05-08 13:52 21.08171 39.08229 25233 ft 478 kts 181°
2026-05-08 13:52 21.04873 39.08364 25911 ft 477 kts 181°
2026-05-08 13:52 21.01501 39.08501 26394 ft 482 kts 181°
2026-05-08 13:52 20.98156 39.08640 27028 ft 483 kts 181°
2026-05-08 13:53 20.94795 39.08777 27561 ft 486 kts 181°
2026-05-08 13:53 20.91417 39.08914 28102 ft 488 kts 181°
2026-05-08 13:53 20.88054 39.09054 28946 ft 483 kts 181°
2026-05-08 13:53 20.84698 39.09193 29744 ft 478 kts 181°
2026-05-08 13:54 20.81408 39.09330 30763 ft 466 kts 182°
2026-05-08 13:54 20.78238 39.09462 31724 ft 452 kts 182°
2026-05-08 13:54 20.71910 39.09717 31798 ft 451 kts 182°
2026-05-08 13:55 20.65721 39.09643 31798 ft 446 kts 186°
2026-05-08 13:56 20.56382 39.09399 31785 ft 446 kts 186°
2026-05-08 13:56 20.50161 39.09240 31783 ft 446 kts 186°
2026-05-08 13:57 20.43942 39.09083 31783 ft 446 kts 186°
2026-05-08 13:57 20.37736 39.08926 31783 ft 447 kts 186°
2026-05-08 13:58 20.31501 39.08770 31782 ft 446 kts 185°
2026-05-08 13:58 20.25326 39.08614 31778 ft 445 kts 185°
2026-05-08 13:59 20.19117 39.08459 31771 ft 445 kts 186°
2026-05-08 13:59 20.12926 39.08304 31771 ft 445 kts 185°
2026-05-08 14:00 20.06712 39.08149 31777 ft 444 kts 185°
2026-05-08 14:00 20.00530 39.07994 31782 ft 445 kts 185°
2026-05-08 14:01 19.94311 39.07839 31783 ft 442 kts 185°
2026-05-08 14:01 19.88156 39.07685 31799 ft 444 kts 185°
2026-05-08 14:02 19.81941 39.07531 31798 ft 444 kts 185°
2026-05-08 14:02 19.75786 39.07377 31795 ft 442 kts 185°
2026-05-08 14:03 19.69644 39.07224 31800 ft 441 kts 185°
2026-05-08 14:03 19.63497 39.07070 31805 ft 441 kts 185°
2026-05-08 14:04 19.57350 39.06917 31803 ft 441 kts 185°
2026-05-08 14:04 19.51206 39.06765 31793 ft 440 kts 185°
2026-05-08 14:05 19.45091 39.06614 31782 ft 439 kts 185°
2026-05-08 14:05 19.38974 39.06462 31797 ft 438 kts 186°
2026-05-08 14:06 19.32888 39.06311 31786 ft 438 kts 185°
2026-05-08 14:06 19.26776 39.06160 31793 ft 436 kts 186°
2026-05-08 14:07 19.20707 39.06009 31781 ft 435 kts 185°
2026-05-08 14:07 19.14660 39.05860 31787 ft 434 kts 185°
2026-05-08 14:08 19.08609 39.05592 31795 ft 432 kts 187°
2026-05-08 14:08 19.02589 39.05254 31791 ft 433 kts 187°
2026-05-08 14:09 18.96576 39.04919 31780 ft 432 kts 187°
2026-05-08 14:09 18.90565 39.04584 31778 ft 433 kts 187°
2026-05-08 14:10 18.84502 39.04247 31792 ft 433 kts 187°
2026-05-08 14:10 18.78492 39.03914 31794 ft 433 kts 187°
2026-05-08 14:11 18.72448 39.03579 31791 ft 435 kts 187°
2026-05-08 14:11 18.66381 39.03242 31788 ft 434 kts 187°
2026-05-08 14:12 18.60369 39.02909 31786 ft 433 kts 187°
2026-05-08 14:12 18.54296 39.02572 31792 ft 436 kts 187°
2026-05-08 14:13 18.48266 39.02238 31789 ft 434 kts 187°
2026-05-08 14:13 18.42195 39.01903 31794 ft 434 kts 187°
2026-05-08 14:14 18.36153 39.01569 31794 ft 435 kts 187°
2026-05-08 14:14 18.30107 39.01235 31797 ft 434 kts 187°
2026-05-08 14:15 18.24066 39.00902 31800 ft 434 kts 187°
2026-05-08 14:15 18.18012 39.00568 31796 ft 435 kts 187°
2026-05-08 14:16 18.11967 39.00325 31800 ft 435 kts 186°
2026-05-08 14:16 18.05916 39.00108 31797 ft 434 kts 186°
2026-05-08 14:17 17.99857 38.99890 31794 ft 435 kts 186°
2026-05-08 14:17 17.93779 38.99670 31797 ft 435 kts 186°
2026-05-08 14:18 17.87713 38.99452 31802 ft 435 kts 186°
2026-05-08 14:18 17.81626 38.99233 31804 ft 437 kts 186°
2026-05-08 14:19 17.75563 38.99015 31803 ft 437 kts 186°
2026-05-08 14:19 17.69473 38.98797 31803 ft 436 kts 186°
2026-05-08 14:20 17.63389 38.98577 31804 ft 437 kts 185°
2026-05-08 14:20 17.57298 38.98359 31798 ft 434 kts 185°
2026-05-08 14:21 17.51256 38.98143 31803 ft 436 kts 185°
2026-05-08 14:21 17.45169 38.97925 31797 ft 436 kts 185°
2026-05-08 14:22 17.39054 38.98105 31806 ft 440 kts 180°
2026-05-08 14:22 17.32945 38.98508 31797 ft 439 kts 180°
2026-05-08 14:23 17.26822 38.98921 31799 ft 441 kts 180°
2026-05-08 14:23 17.20669 38.99340 31801 ft 441 kts 180°
2026-05-08 14:24 17.14537 38.99760 31799 ft 441 kts 180°
2026-05-08 14:24 17.08405 39.00178 31796 ft 440 kts 179°
2026-05-08 14:25 17.02289 39.00597 31798 ft 441 kts 179°
2026-05-08 14:25 16.96150 39.01017 31796 ft 440 kts 180°
2026-05-08 14:26 16.90011 39.01436 31797 ft 440 kts 180°
2026-05-08 14:26 16.83896 39.01853 31813 ft 441 kts 179°
2026-05-08 14:27 16.77729 39.02274 31816 ft 440 kts 180°
2026-05-08 14:27 16.71592 39.02692 31820 ft 442 kts 180°
2026-05-08 14:28 16.65441 39.03110 31423 ft 448 kts 180°
2026-05-08 14:28 16.62315 39.03323 30956 ft 447 kts 179°
2026-05-08 14:28 16.59223 39.03534 30491 ft 445 kts 180°
2026-05-08 14:28 16.56140 39.03744 30032 ft 445 kts 180°
2026-05-08 14:29 16.53034 39.03955 29573 ft 447 kts 179°
2026-05-08 14:29 16.49915 39.04167 29112 ft 449 kts 179°
2026-05-08 14:29 16.46797 39.04378 28658 ft 448 kts 179°
2026-05-08 14:29 16.43684 39.04591 28223 ft 447 kts 179°
2026-05-08 14:30 16.40570 39.04802 27788 ft 447 kts 179°
2026-05-08 14:30 16.37462 39.05013 27348 ft 446 kts 178°
2026-05-08 14:30 16.34387 39.05221 26910 ft 445 kts 178°
2026-05-08 14:30 16.31291 39.05431 26470 ft 444 kts 178°
2026-05-08 14:31 16.28214 39.05640 26029 ft 443 kts 178°
2026-05-08 14:31 16.25130 39.05849 25584 ft 443 kts 177°
2026-05-08 14:31 16.22061 39.06057 25141 ft 442 kts 177°
2026-05-08 14:32 16.15897 39.06475 24243 ft 441 kts 176°
2026-05-08 14:32 16.12863 39.06681 23797 ft 440 kts 176°
2026-05-08 14:32 16.09794 39.06889 23338 ft 439 kts 176°
2026-05-08 14:32 16.06748 39.07095 22884 ft 440 kts 176°
2026-05-08 14:33 16.03684 39.07303 22428 ft 441 kts 176°
2026-05-08 14:33 16.00596 39.07511 21958 ft 440 kts 176°
2026-05-08 14:33 15.97551 39.07718 21497 ft 437 kts 176°
2026-05-08 14:33 15.94541 39.07922 21054 ft 434 kts 175°
2026-05-08 14:34 15.91495 39.08128 20592 ft 432 kts 175°
2026-05-08 14:34 15.88519 39.08329 20135 ft 430 kts 175°
2026-05-08 14:34 15.85515 39.08532 19688 ft 428 kts 175°
2026-05-08 14:34 15.82568 39.08731 19244 ft 426 kts 175°
2026-05-08 14:35 15.79615 39.08931 18818 ft 424 kts 175°
2026-05-08 14:35 15.76627 39.09132 18380 ft 422 kts 175°
2026-05-08 14:35 15.73728 39.09328 17955 ft 420 kts 175°
2026-05-08 14:35 15.70783 39.09527 17536 ft 418 kts 175°
2026-05-08 14:36 15.67901 39.09721 17136 ft 416 kts 175°
2026-05-08 14:36 15.65011 39.09916 16721 ft 413 kts 175°
2026-05-08 14:36 15.62157 39.10108 16349 ft 409 kts 175°
2026-05-08 14:36 15.59311 39.10300 15926 ft 404 kts 175°
2026-05-08 14:37 15.56498 39.10489 15504 ft 398 kts 175°
2026-05-08 14:37 15.53756 39.10688 15134 ft 393 kts 173°
2026-05-08 14:37 15.51108 39.11297 14750 ft 390 kts 159°
2026-05-08 14:37 15.48720 39.12587 14356 ft 386 kts 144°
2026-05-08 14:38 15.46620 39.14273 13941 ft 381 kts 141°
2026-05-08 14:38 15.44342 39.15713 13508 ft 379 kts 155°
2026-05-08 14:38 15.41821 39.16455 13090 ft 377 kts 171°
2026-05-08 14:38 15.39196 39.16469 12725 ft 376 kts 186°
2026-05-08 14:39 15.36676 39.15760 12354 ft 378 kts 202°
2026-05-08 14:39 15.34395 39.14355 11982 ft 380 kts 218°
2026-05-08 14:39 15.32592 39.12390 11704 ft 376 kts 234°
2026-05-08 14:39 15.31386 39.10003 11562 ft 375 kts 250°
2026-05-08 14:40 15.30866 39.07371 11549 ft 377 kts 266°
2026-05-08 14:40 15.30994 39.04679 11516 ft 362 kts 275°
2026-05-08 14:40 15.31065 39.02175 11275 ft 340 kts 268°
2026-05-08 14:40 15.30865 38.99782 10504 ft 330 kts 262°
2026-05-08 14:41 15.30546 38.97525 9505 ft 312 kts 260°
2026-05-08 14:41 15.30070 38.95401 8871 ft 285 kts 253°
2026-05-08 14:41 15.29524 38.93543 8964 ft 262 kts 252°
2026-05-08 14:41 15.28999 38.91777 8898 ft 252 kts 252°
2026-05-08 14:42 15.28478 38.90080 8760 ft 245 kts 252°
2026-05-08 14:42 15.27994 38.88441 8774 ft 229 kts 252°
2026-05-08 14:42 15.27626 38.86942 8952 ft 197 kts 265°
2026-05-08 14:42 15.27853 38.85580 9083 ft 201 kts 298°
2026-05-08 14:43 15.28817 38.84525 9283 ft 202 kts 332°
2026-05-08 14:43 15.30139 38.84107 9432 ft 200 kts 353°
2026-05-08 14:43 15.31526 38.83870 9577 ft 201 kts 355°
2026-05-08 14:43 15.32920 38.83700 9637 ft 201 kts 358°
2026-05-08 14:44 15.34303 38.83652 9738 ft 195 kts 11°
2026-05-08 14:44 15.35507 38.84263 9755 ft 195 kts 45°
2026-05-08 14:44 15.36248 38.85420 9831 ft 190 kts 64°
2026-05-08 14:44 15.36825 38.86652 9940 ft 191 kts 66°
2026-05-08 14:45 15.37364 38.87930 9988 ft 194 kts 69°
2026-05-08 14:45 15.37842 38.89217 10012 ft 189 kts 71°
2026-05-08 14:45 15.38269 38.90517 9988 ft 192 kts 73°
2026-05-08 14:45 15.38655 38.91853 10004 ft 189 kts 74°
2026-05-08 14:46 15.38920 38.93131 10345 ft 174 kts 90°
2026-05-08 14:46 15.38684 38.94445 10600 ft 194 kts 102°
2026-05-08 14:46 15.38379 38.95788 10721 ft 190 kts 102°
2026-05-08 14:46 15.38063 38.97088 10740 ft 183 kts 104°
2026-05-08 14:47 15.37737 38.98380 10647 ft 184 kts 104°
2026-05-08 14:47 15.37377 38.99645 10581 ft 182 kts 107°
2026-05-08 14:47 15.36970 39.00885 10524 ft 182 kts 108°
2026-05-08 14:47 15.36556 39.02120 10523 ft 179 kts 109°
2026-05-08 14:48 15.35917 39.03228 10408 ft 188 kts 135°
2026-05-08 14:48 15.34749 39.03840 10372 ft 186 kts 165°
2026-05-08 14:48 15.33431 39.03786 10215 ft 199 kts 194°
2026-05-08 14:48 15.32248 39.03016 9923 ft 202 kts 226°
2026-05-08 14:49 15.31658 39.01724 9585 ft 204 kts 259°
2026-05-08 14:49 15.31445 39.00293 9334 ft 197 kts 259°
2026-05-08 14:49 15.31058 38.98944 9032 ft 197 kts 248°
2026-05-08 14:49 15.30642 38.97671 8713 ft 183 kts 254°
2026-05-08 14:50 15.30340 38.96429 8385 ft 172 kts 255°
2026-05-08 14:50 15.30051 38.95262 7981 ft 165 kts 253°
2026-05-08 14:50 15.29687 38.94093 7861 ft 176 kts 251°
2026-05-08 14:50 15.29347 38.92858 7695 ft 179 kts 254°
2026-05-08 14:51 15.29011 38.91652 7548 ft 169 kts 253°
2026-05-08 14:51 15.28743 38.90661 7533 ft 107 kts 253°
2026-05-08 14:51 15.28611 38.90171 7539 ft 48 kts 253°
2026-05-08 14:51 15.28523 38.89846 7552 ft 44 kts 253°
2026-05-08 14:52 15.28458 38.89617 7562 ft 25 kts 254°
2026-05-08 14:52 15.28416 38.89530 7567 ft 2 kts 227°
2026-05-08 14:52 15.28407 38.89520 7567 ft 2 kts 228°
2026-05-08 14:53 15.28394 38.89498 7568 ft 4 kts 243°
2026-05-08 14:53 15.28392 38.89467 7569 ft 4 kts 294°
2026-05-08 14:53 15.28410 38.89456 7570 ft 2 kts 13°
2026-05-08 14:53 15.28421 38.89471 7569 ft 3 kts 76°
2026-05-08 14:54 15.28430 38.89505 7568 ft 6 kts 74°
2026-05-08 14:54 15.28444 38.89557 7565 ft 8 kts 75°
2026-05-08 14:54 15.28459 38.89616 7563 ft 8 kts 75°
2026-05-08 14:54 15.28477 38.89681 7559 ft 9 kts 75°
2026-05-08 14:55 15.28496 38.89752 7556 ft 10 kts 75°
2026-05-08 14:55 15.28516 38.89828 7552 ft 11 kts 75°
2026-05-08 14:55 15.28538 38.89908 7549 ft 11 kts 73°
2026-05-08 14:55 15.28561 38.89989 7545 ft 11 kts 74°
2026-05-08 14:56 15.28584 38.90072 7542 ft 11 kts 74°
2026-05-08 14:56 15.28606 38.90151 7540 ft 11 kts 74°
2026-05-08 14:56 15.28627 38.90229 7537 ft 12 kts 74°
2026-05-08 14:56 15.28654 38.90327 7535 ft 16 kts 74°
2026-05-08 14:57 15.28686 38.90445 7533 ft 16 kts 75°
2026-05-08 14:57 15.28715 38.90552 7533 ft 14 kts 74°
2026-05-08 14:57 15.28739 38.90640 7533 ft 10 kts 74°
2026-05-08 14:57 15.28755 38.90701 7533 ft 6 kts 74°
2026-05-08 14:58 15.28764 38.90735 7535 ft 3 kts 74°
2026-05-08 14:58 15.28769 38.90751 7535 ft 2 kts 71°
2026-05-08 14:58 15.28795 38.90775 7536 ft 8 kts 19°
2026-05-08 14:58 15.28863 38.90764 7537 ft 10 kts 345°
2026-05-08 14:59 15.28922 38.90748 7538 ft 8 kts 349°
2026-05-08 14:59 15.29083 38.90753 7534 ft 14 kts
2026-05-08 14:59 15.29191 38.90768 7531 ft 16 kts
2026-05-08 15:00 15.29298 38.90786 7530 ft 13 kts
2026-05-08 15:00 15.29358 38.90794 7530 ft 0 kts
2026-05-08 15:00 15.29370 38.90794 7531 ft 3 kts 346°
2026-05-08 15:00 15.29382 38.90776 7531 ft 3 kts 288°
2026-05-08 15:01 15.29387 38.90747 7530 ft 5 kts 278°
2026-05-08 15:01 15.29390 38.90721 7530 ft 0 kts 278°